SCP
0 0 0 0 0 0 0 0 0 0 0 0 0 0 0 0 0 0 0 0 0 0 0 0 0 0 0 0 0 0 0 0 0 0 0 0 0 0 0 0 0 0 0
0 0 0 0 0 0 0 0 0 0 0 0 0 0 0 0 0 0 0 0 0 0 0 0 0 0 0 0 0 0 0 0 0 0 0 0 0 0 0 0 0 0 0
0 0 0 0 0 0 0 0 0 0 0 0 0 0 0 0 0 0 0 0 0 0 0 0 0 0 0 0 0 0 0 0 0 0 0 0 0 0 0 0 0 0 0
0 0 0 0 0 0 0 0 0 0 0 0 0 0 0 0 0 0 0 0 0 0 0 0 0 0 0 0 0 0 0 0 0 0 0 0 0 0 0 0 0 0 0
0 0 0 0 0 0 0 0 0 0 0 0 0 0 0 0 0 0 0 0 0 0 0 0 0 0 0 0 0 0 0 0 0 0 0 0 0 0 0 0 0 0 0
-0 0 0 0 0 0 0 0 0 0 0 0 0 0 0 0 0 0 0 0 0 0 0 0 0 0 0 0 0 0 0 0 -0 -0 0 0 0 0 0 0 0 0 0
-0 0 0 0 0 0 0 0 0 0 0 0 0 0 0 0 0 0 0 0 0 0 0 -0 -0 0 0 0 0 0 0 -0 -0 -0 0 0 0 0 0 0 0 0 0
0 0 0 0 0 0 -0 0 0 0 0 0 0 0 0 -0 0 0 0 0 0 0 0 -0 -0 0 0 0 0 0 0 -0 -0 -0 0 0 0 0 0 0 0 0 0
0 0 0 0 0 0 0 0 0 0 0 0 0 0 0 -0 0 0 -0 -0 0 0 0 0 0 0 0 0 0 0 0 0 0 -0 0 0 0 0 0 0 0 0 0
0 0 0 0 0 0 0 0 0 0 0 0 0 0 0 0 0 0 -0 -0 -0 0 0 0 0 0 0 0 0 0 0 0 0 0 0 0 0 0 0 0 0 0 0
0 0 0 0 -0 0 0 0 0 0 0 0 0 0 0 0 0 0 -0 -0 -0 -0 0 0 0 0 0 0 0 0 0 0 0 0 0 0 0 0 0 0 0 0 0
0 0 0 0 0 0 -0 -0 -0 0 0 0 0 0 0 0 0 0 -0 -0 -0 -0 0 0 0 0 0 0 0 0 0 0 0 0 0 0 0 0 0 0 0 0 0
0 0 0 0 0 0 0 0 0 0 0 0 0 0 0 -0 -0 -0 -0 -0 0 0 0 0 0 -0 0 0 0 0 0 0 0 0 0 0 0 0 0 0 0 0 0
0 0 0 0 0 0 0 0 0 0 0 0 0 -0 -0 -0 -0 -0 -0 -0 -0 0 0 0 0 0 0 0 0 0 0 0 0 0 0 0 0 0 0 0 0 0 0
0 0 0 0 0 0 0 0 0 0 0 0 0 -0 -0 -0 -0 -0 -0 -0 -0 0 0 0 0 0 0 0 0 0 0 0 0 0 0 0 0 0 0 0 0 0 0
0 0 0 0 0 0 0 0 0 0 0 0 0 -0 -0 -0 -0 -0 -0 -0 -0 0 0 0 0 0 0 0 0 0 0 0 0 0 0 0 0 0 0 0 0 0 0
0 0 0 0 0 0 0 0 0 0 0 0 0 0 -0 -0 -0 -0 -0 -0 0 0 0 0 0 0 0 0 0 0 0 0 0 0 0 0 0 0 0 0 0 0 0
0 0 0 0 0 0 0 0 0 0 0 0 0 0 0 0 0 0 -0 -0 -0 0 0 0 0 0 0 0 0 0 0 0 0 0 0 0 0 0 0 0 0 0 0
0 0 0 0 0 0 0 0 0 0 0 0 0 0 0 0 0 0 0 0 -0 -0 0 0 0 0 0 0 0 0 0 0 0 0 0 0 -0 0 0 0 0 0 0
0 0 0 0 0 0 0 0 0 0 0 0 0 0 0 0 0 0 0 0 0 -0 0 0 0 0 0 0 0 0 0 0 0 0 0 0 0 0 0 0 0 0 0
0 0 0 0 0 0 0 0 0 0 0 0 0 0 0 0 0 0 0 0 0 0 0 0 0 0 0 0 0 0 0 0 0 0 0 0 0 0 0 0 0 0 0
0 0 0 0 0 0 0 0 0 0 0 0 0 0 0 0 0 0 0 0 0 0 0 0 0 0 0 0 0 0 0 0 0 0 0 0 0 0 0 0 0 0 0
0 0 0 0 0 0 0 0 0 0 0 0 0 0 0 0 0 0 0 0 0 0 0 0 0 0 0 0 0 0 0 0 0 0 0 0 0 0 0 0 0 0 0
0 0 0 0 0 0 0 0 0 0 0 0 0 0 0 0 0 0 0 0 0 0 0 0 0 0 0 0 0 0 0 0 0 0 0 0 0 0 0 0 0 0 0
0 0 0 0 0 0 0 0 0 0 0 0 0 0 0 0 0 0 0 0 0 0 0 0 0 0 0 0 0 0 0 0 0 0 0 0 0 0 0 0 0 0 0
0 0 0 0 0 0 0 0 0 0 0 0 0 0 0 0 0 0 0 0 0 0 0 0 0 0 0 0 0 0 0 0 0 0 0 0 0 0 0 0 0 0 0
Wind_Speed
6 6 6 6 6 6 6 7 8 8 9 10 11 12 12 12 12 10 11 12 13 13 12 12 13 11 9 8 8 9 9 9 10 6 4 4 5 6 5 6 7 7 12
6 7 8 8 8 8 9 9 9 10 10 11 11 12 13 12 11 12 13 12 12 13 12 12 14 11 12 10 9 9 9 8 8 9 5 4 4 9 9 8 6 8 10
7 8 8 8 9 9 10 10 9 10 11 11 11 11 11 11 11 11 11 11 11 12 12 13 14 13 14 11 11 10 9 9 8 8 6 3 4 8 10 9 9 8 10
9 9 9 9 9 10 10 9 10 10 11 10 9 9 9 10 10 10 11 11 11 11 11 12 13 13 13 12 11 11 10 9 9 8 7 6 7 8 8 8 7 7 9
10 10 10 10 9 9 9 9 10 10 9 8 8 8 8 8 8 11 11 11 12 11 11 11 12 16 17 13 10 8 10 8 8 8 6 8 10 10 8 7 10 9 10
10 11 11 10 10 10 10 10 9 8 7 7 8 9 10 9 13 17 15 11 11 11 11 12 12 13 16 18 17 15 13 10 7 7 6 11 12 12 10 11 11 9 7
11 11 11 10 11 11 10 9 7 6 7 9 9 10 11 12 17 18 19 12 10 10 11 11 10 11 15 12 13 14 13 14 12 6 9 13 14 15 15 12 8 7 10
11 11 11 10 10 9 8 7 7 6 8 8 9 9 9 12 18 18 18 10 9 10 11 11 12 14 13 14 9 6 6 7 10 9 8 12 15 15 13 14 15 15 13
10 10 10 9 8 8 8 8 7 7 8 8 7 8 9 11 16 19 16 8 9 11 11 12 14 13 18 18 8 2 4 5 7 11 14 18 20 21 19 15 14 14 14
10 10 9 8 8 8 8 8 6 5 6 7 8 8 9 10 15 19 18 7 9 10 10 12 16 17 19 19 10 7 10 10 13 17 20 22 19 17 14 11 12 14 15
9 8 8 8 8 7 7 6 6 6 7 8 9 9 10 12 15 19 20 9 8 9 9 10 10 18 18 18 14 10 12 11 13 14 14 14 12 10 9 8 6 8 11
7 7 8 8 8 7 7 7 7 7 7 8 9 10 9 11 14 17 19 16 14 9 9 9 11 17 16 16 12 14 15 12 9 11 11 11 10 9 9 10 11 10 9
6 7 6 7 7 7 7 7 6 6 6 7 8 8 9 9 11 17 16 17 19 11 9 15 17 18 14 11 15 15 11 8 8 9 10 10 9 10 10 11 14 15 15
6 6 5 6 7 7 6 5 5 6 6 7 8 8 8 8 9 9 10 11 14 12 10 12 14 15 12 12 10 9 8 8 8 10 11 10 9 9 10 9 10 11 12
6 5 5 5 5 6 6 4 5 3 4 5 6 7 8 10 12 15 12 11 11 11 10 9 9 10 10 10 8 7 7 8 10 10 10 10 10 10 9 8 10 11 11
4 4 3 4 4 5 5 5 6 6 9 11 11 10 7 12 16 18 17 16 18 17 10 9 10 10 10 9 8 7 7 7 8 8 9 10 10 10 10 9 9 10 10
4 4 3 3 4 5 4 3 3 5 8 10 13 14 14 15 16 18 17 14 14 14 10 9 9 9 9 9 8 7 5 5 6 7 9 10 10 10 9 9 9 9 10
2 3 3 3 3 3 3 2 2 3 4 5 8 12 16 17 16 16 16 12 9 10 8 8 8 8 8 8 8 7 6 5 5 7 8 9 9 9 8 8 8 11 11
3 3 3 3 3 3 3 3 3 3 4 4 6 9 13 14 12 11 12 9 9 8 8 7 7 7 7 7 7 7 7 5 5 7 8 8 8 8 8 8 9 13 12
4 7 5 4 4 4 5 5 4 3 4 5 7 8 9 10 9 8 8 8 8 8 7 7 7 7 7 7 7 6 6 5 4 6 7 8 7 8 10 11 10 10 10
5 6 8 6 6 6 5 5 5 4 5 5 6 9 12 9 9 9 8 8 8 8 7 7 6 6 6 6 6 6 7 5 4 5 7 8 8 9 9 9 10 10 10
6 6 6 6 6 6 6 6 6 6 7 7 6 8 11 8 8 8 8 8 8 7 6 5 5 5 5 5 6 6 6 5 3 5 7 8 9 10 9 8 9 9 10
6 7 7 6 6 7 7 7 7 7 8 8 8 8 9 9 9 9 9 8 7 7 6 5 5 5 5 5 5 5 5 4 3 5 8 8 9 9 9 10 11 11 11
7 7 7 6 6 7 7 7 7 8 8 8 9 9 9 9 9 9 9 8 8 7 7 6 6 8 9 6 4 4 4 4 3 5 9 9 9 8 8 9 9 12 12
7 7 7 7 7 6 7 7 8 8 8 8 8 9 9 9 9 9 9 9 10 9 10 9 7 7 9 9 7 5 6 6 6 6 8 8 10 10 9 9 9 11 11
7 7 7 6 6 6 7 7 8 8 8 8 8 8 9 9 9 9 9 9 9 9 10 8 11 12 12 8 8 7 7 7 9 9 7 7 8 8 8 7 10 10 12
Wind_Direction
360 354 349 340 333 323 309 303 301 295 293 295 297 297 296 293 289 284 283 284 282 280 277 276 275 272 267 262 257 251 243 240 254 255 218 168 148 134 110 88 72 60 56
345 343 337 329 323 313 301 295 296 297 295 295 296 295 295 295 295 294 293 294 291 289 287 284 280 276 268 262 254 249 246 240 244 255 231 173 141 140 120 100 85 77 71
337 330 320 311 306 303 298 294 297 300 300 299 298 300 305 309 307 306 305 301 294 289 287 283 279 274 267 258 251 247 244 243 233 238 233 159 127 135 119 101 85 78 75
323 314 307 302 300 301 300 298 302 305 305 307 314 319 321 319 320 329 325 315 304 296 292 290 287 280 272 263 253 242 234 233 228 226 217 151 141 133 124 116 101 83 77
316 313 309 305 303 305 307 308 310 313 316 324 328 326 324 323 330 334 329 325 318 310 305 302 300 300 297 286 270 241 226 224 220 213 186 148 147 145 135 125 116 102 80
319 317 316 316 318 318 316 315 316 317 320 327 327 325 323 322 322 328 331 322 319 315 314 313 311 309 312 305 287 266 240 227 221 207 170 159 156 147 136 138 132 123 101
318 317 318 320 320 319 321 325 324 323 323 323 321 324 324 324 329 329 326 324 317 319 321 323 325 322 319 307 289 269 248 235 229 217 171 161 156 153 147 139 123 107 111
316 317 320 323 323 327 333 339 336 327 325 322 328 333 333 336 339 336 336 334 327 332 334 334 334 331 331 326 298 268 234 223 217 209 179 161 152 146 138 130 122 111 104
321 326 330 334 336 339 344 340 332 330 335 338 342 344 343 339 347 355 356 341 339 341 341 343 345 343 342 343 335 353 94 83 93 119 119 121 126 131 133 128 128 122 118
331 334 337 344 346 346 340 333 334 342 346 348 347 348 347 348 354 0 1 349 347 344 343 346 348 352 355 2 11 48 82 86 93 94 98 103 111 120 120 128 135 131 130
333 338 345 353 352 352 346 347 355 358 355 356 355 357 360 358 357 359 1 360 351 347 349 347 344 354 8 14 27 51 71 88 94 99 103 107 110 110 98 79 76 120 134
338 352 357 2 6 3 3 2 4 3 358 356 0 4 1 357 358 355 357 2 4 360 354 349 348 357 13 25 38 48 61 78 91 97 100 103 105 104 99 91 84 80 91
346 2 3 5 7 5 8 2 357 1 3 358 1 1 357 357 354 353 356 2 7 8 357 357 359 7 13 23 31 43 57 74 87 94 98 101 101 103 100 97 95 98 99
348 356 1 6 3 2 2 0 3 2 359 1 4 0 357 357 359 3 5 6 5 4 359 357 1 8 20 20 24 43 57 67 80 87 92 98 100 100 101 107 111 114 109
339 346 352 357 360 358 356 355 1 359 358 6 359 353 1 9 6 12 19 16 10 3 1 11 14 14 17 16 20 46 60 70 79 87 94 94 95 98 102 103 109 113 114
317 324 332 339 351 357 349 350 17 28 23 21 12 10 5 10 9 13 14 16 11 4 18 22 16 12 13 11 16 34 57 73 82 90 95 99 105 108 107 104 107 112 117
278 291 315 337 351 352 350 353 355 353 358 0 1 6 9 7 11 10 6 10 19 14 26 24 18 11 6 7 11 20 40 62 77 93 103 111 116 117 116 116 115 118 119
292 305 324 344 354 356 358 3 4 358 352 347 346 355 0 0 4 9 3 4 21 27 23 18 14 10 4 2 6 11 19 48 85 101 110 117 123 124 122 122 125 127 127
41 34 37 38 34 26 17 24 28 18 6 355 359 360 357 354 354 11 12 16 15 17 18 13 7 2 0 359 2 8 13 27 86 112 115 120 125 126 124 123 124 126 127
51 68 67 55 43 36 29 29 24 15 9 11 14 9 359 0 2 8 22 18 14 12 12 10 4 359 355 356 359 5 12 22 69 110 116 118 120 125 128 128 128 127 124
61 61 64 60 51 42 34 28 23 21 16 14 15 11 9 7 4 4 13 15 13 12 7 3 358 354 352 352 356 3 11 19 53 109 114 117 122 125 125 125 124 121 120
72 65 57 54 48 43 36 31 30 29 24 18 6 2 2 10 11 8 11 11 7 6 1 354 349 347 346 348 352 355 4 13 42 112 117 117 120 123 123 122 120 121 125
73 68 58 49 45 40 37 31 30 28 24 18 10 6 4 6 11 10 8 7 3 359 354 347 345 351 351 348 350 351 351 351 23 112 120 118 122 126 129 129 129 128 130
73 68 61 52 46 41 35 30 27 26 23 18 12 9 7 6 7 7 3 2 358 352 347 345 352 3 8 4 355 352 348 353 39 104 116 118 119 122 124 127 130 134 134
75 71 63 55 49 42 36 32 29 26 23 18 12 8 6 4 3 2 359 355 353 351 351 353 359 5 8 11 11 7 6 33 70 98 106 110 116 120 122 124 128 134 136
77 73 66 59 53 46 42 38 34 28 23 17 12 9 8 5 2 0 358 357 353 349 349 352 2 11 13 14 16 22 35 57 77 92 105 109 112 114 117 120 129 134 138